This is the latest recevied weather packets stored in our database for station/object EA6AMI-5. If no packets are shown the sender has not sent any weather packets the latest 10 day(s).
| Time | Temp. | Humidity | Pressure | Rain* | Wind** | Luminosity | Snow |
|---|---|---|---|---|---|---|---|
| 1788005343 | 30.56° C | 48% | 1018.5 hPa | 0 mm | - | 779 W/m² | - |
| 1788004803 | 30.56° C | 48% | 1018.6 hPa | 0 mm | - | 798 W/m² | - |
| 1788004443 | 30.56° C | 48% | 1018.7 hPa | 0 mm | - | 790 W/m² | - |
| 1788003903 | 30° C | 49% | 1018.7 hPa | 0 mm | - | 762 W/m² | - |
| 1788003363 | 30° C | 49% | 1018.6 hPa | 0 mm | - | 775 W/m² | - |
| 1788002823 | 29.44° C | 50% | 1018.9 hPa | 0 mm | - | 752 W/m² | - |
| 1788002283 | 29.44° C | 50% | 1018.9 hPa | 0 mm | - | 761 W/m² | - |
| 1788001743 | 30° C | 50% | 1018.9 hPa | 0 mm | - | 745 W/m² | - |
| 1788001204 | 28.89° C | 52% | 1018.9 hPa | 0 mm | - | 746 W/m² | - |
| 1788000843 | 29.44° C | 51% | 1018.9 hPa | 0 mm | - | 743 W/m² | - |
| 1788000303 | 30° C | 51% | 1019 hPa | 0 mm | - | 734 W/m² | - |
| 1787999763 | 30° C | 50% | 1019 hPa | 0 mm | - | 697 W/m² | - |
| 1787999223 | 30° C | 49% | 1019 hPa | 0 mm | - | 683 W/m² | - |
| 1787998683 | 29.44° C | 50% | 1019 hPa | 0 mm | - | 672 W/m² | - |
| 1787998143 | 28.33° C | 50% | 1019 hPa | 0 mm | - | 652 W/m² | - |
| 1787997603 | 28.89° C | 50% | 1018.9 hPa | 0 mm | - | 628 W/m² | - |
| 1787997243 | 28.89° C | 50% | 1019 hPa | 0 mm | - | 608 W/m² | - |
| 1787996703 | 28.89° C | 50% | 1019 hPa | 0 mm | - | 577 W/m² | - |
| 1787996163 | 28.33° C | 50% | 1018.9 hPa | 0 mm | - | 545 W/m² | - |
| 1787995623 | 28.33° C | 50% | 1018.9 hPa | 0 mm | - | 521 W/m² | - |
| 1787995083 | 28.33° C | 50% | 1019 hPa | 0 mm | - | 496 W/m² | - |
| 1787994543 | 28.33° C | 50% | 1019.1 hPa | 0 mm | - | 476 W/m² | - |
| 1787994003 | 28.33° C | 50% | 1019 hPa | 0 mm | - | 461 W/m² | - |
| 1787993643 | 28.33° C | 50% | 1018.6 hPa | 0 mm | - | 447 W/m² | - |
| 1787993103 | 28.33° C | 50% | 1018.9 hPa | 0 mm | - | 426 W/m² | - |
* Rain latest hour (hover to see other rain measurements)
** Current wind speed in m/s (hover to see current wind gust speed)